Date,TemperatureHighF,TemperatureAvgF,TemperatureLowF,DewpointHighF,DewpointAvgF,DewpointLowF,HumidityHigh,HumidityAvg,HumidityLow,PressureMaxIn,PressureMinIn,WindSpeedMaxMPH,WindSpeedAvgMPH,GustSpeedMaxMPH,PrecipitationSumIn
2013-2-1,28.4,21.7,14.2,3.9,-1.8,-7.3,37,35,32,29.56,29.23,26,6,26,0.00
2013-2-2,26.4,18.8,11.5,8.2,-2.2,-9.7,55,39,32,29.74,29.56,17,4,17,0.00
2013-2-3,28.0,23.8,20.3,15.6,10.8,6.3,78,58,44,29.59,29.21,14,1,14,0.00
2013-2-4,28.2,20.9,14.9,7.0,1.3,-8.4,60,43,33,29.38,29.15,35,5,35,0.00
2013-2-5,23.5,15.4,7.2,-2.0,-7.6,-14.7,41,35,29,29.56,29.38,23,2,23,0.00
2013-2-6,35.4,22.4,11.5,15.9,3.2,-8.1,53,43,33,29.80,29.44,17,3,17,0.00
2013-2-7,18.3,11.4,7.5,-8.1,-12.9,-18.1,35,32,28,30.09,29.80,19,1,19,0.00
2013-2-8,18.9,12.3,7.5,12.3,-4.7,-18.1,75,50,29,30.09,29.41,17,3,17,0.00
2013-2-9,16.2,12.4,9.5,11.5,6.5,2.6,82,77,73,29.62,29.21,26,7,26,0.00
2013-2-10,33.1,18.4,8.8,25.0,10.4,-1.4,81,71,54,29.88,29.62,18,2,18,0.00
2013-2-11,38.7,25.8,6.4,37.3,19.9,-3.6,98,78,56,29.85,29.12,21,1,21,0.28
2013-2-12,43.5,36.3,31.6,36.5,27.1,20.6,98,73,44,29.29,29.03,26,4,26,0.00
2013-2-13,44.4,36.3,31.6,21.1,17.7,14.2,57,47,38,29.32,29.26,17,3,17,0.00
2013-2-14,40.3,31.5,22.8,18.0,14.9,10.9,66,51,35,29.53,29.23,17,1,17,0.00
2013-2-15,44.6,33.3,23.5,31.4,23.1,11.7,90,67,48,29.53,29.44,29,3,29,0.00
2013-2-16,35.6,32.0,24.6,32.5,28.2,19.9,95,86,71,29.47,29.29,11,0,11,0.00
2013-2-17,24.6,21.2,18.1,19.9,8.3,-0.1,82,57,43,29.29,28.67,30,8,30,0.00
2013-2-18,30.4,20.5,11.8,4.7,-1.4,-5.9,44,38,32,29.50,28.91,37,10,37,0.00
2013-2-19,41.5,28.8,13.3,40.5,10.6,-8.4,96,49,29,29.62,29.15,27,3,27,0.31
2013-2-20,42.8,35.5,27.1,42.3,22.7,8.1,98,63,41,29.15,28.94,36,6,36,0.24
2013-2-21,31.3,26.3,20.8,20.9,9.9,2.5,66,50,42,29.62,29.15,17,4,17,0.00
2013-2-22,39.4,30.7,24.4,20.0,14.3,11.7,63,51,38,29.88,29.62,17,1,17,0.00
2013-2-23,35.6,29.8,22.1,28.6,21.8,12.3,87,72,60,29.85,29.56,17,2,17,0.00
2013-2-24,31.8,30.0,27.1,29.5,27.4,24.6,92,90,83,29.56,29.32,11,0,11,0.00
2013-2-25,38.8,28.9,21.4,24.6,18.5,13.2,90,67,40,29.74,29.41,12,0,12,0.00
2013-2-26,41.9,32.7,25.0,26.0,21.0,17.0,82,63,42,29.88,29.74,14,1,14,0.00
2013-2-27,37.9,32.2,25.0,32.2,25.4,18.5,95,77,53,29.80,29.23,26,5,26,0.12
2013-2-28,41.0,38.1,32.4,40.5,37.5,31.9,98,98,95,29.24,29.06,26,3,26,0.51